Weather History for Chattanooga, TN

Change the Weather History Date:

Monday, October 4, 2010

  Actual Average Record
Temperature  
Mean Temperature 56 °F 66 °F  
Max Temperature 66 °F 77 °F 92 °F (1954)
Min Temperature 46 °F 54 °F 33 °F (1974)
Degree Days  
Heating Degree Days 9 2  
Month to date heating degree days 15 8  
Since 1 July heating degree days 17 23  
Cooling Degree Days 0 3  
Month to date cooling degree days 4 13  
Year to date cooling degree days 2354 1702  
Growing Degree Days 5 (Base 50)    
Moisture  
Dew Point 39 °F    
Average Humidity 56    
Maximum Humidity 77    
Minimum Humidity 34    
Precipitation  
Precipitation 0.00 in 0.12 in 2.05 in (1972)
Month to date precipitation 0.00 0.47  
Year to date precipitation 30.17 39.77  
Snow  
Snow 0.00 in 0.00 in - ()
Month to date snowfall 0.0 0.0  
Since 1 July snowfall 0.0 0.0  
Since 1 September snowfall 0.0 0.0  
Snow Depth 0.00 in    
Sea Level Pressure  
Sea Level Pressure 30.23 in    
Wind  
Wind Speed 9 mph (North)    
Max Wind Speed 21 mph    
Max Gust Speed 26 mph    
Visibility 10 miles    
Events      
T = Trace of Precipitation, MM = Missing Value Source: NWS Daily Summary

Daily Weather History Graph

Daily Weather History Graph

Search for Another Location

Airport:

Trip Planner

Search our weather history database for the weather conditions in past years. The results will help you decide how hot, cold, wet, or windy it might be!

Date:

Astronomy

Oct. 04, 2010 Rise Set
Actual Time 7:37 AM EDT 7:20 PM EDT
Civil Twilight 7:12 AM EDT 7:45 PM EDT
Nautical Twilight 6:43 AM EDT 8:15 PM EDT
Astronomical Twilight 6:13 AM EDT 8:44 PM EDT
Moon 3:54 AM EDT (10/4) 5:12 PM EDT (10/4)
Length of Visible Light 12h 33m
Length of Day
11h 42m
Waning Crescent, 14% of the Moon is Illuminated
Oct 4
Waning Crescent
Oct 7
New
Oct 14
First Quarter
Oct 22
Full
Oct 30
Last Quarter

Hourly Weather History & Observations

Time (EDT) Temp. Windchill Dew Point Humidity Pressure Visibility Wind Dir Wind Speed Gust Speed Precip Events Conditions
12:53 AM 52.0 °F - 41.0 °F 66% 30.20 in 10.0 mi North 8.1 mph - N/A   Clear
1:53 AM 50.0 °F - 42.1 °F 74% 30.20 in 10.0 mi North 8.1 mph - N/A   Clear
2:53 AM 50.0 °F - 42.1 °F 74% 30.20 in 10.0 mi North 5.8 mph - N/A   Clear
3:53 AM 50.0 °F - 42.1 °F 74% 30.18 in 10.0 mi North 10.4 mph - N/A   Clear
4:53 AM 48.9 °F - 41.0 °F 74% 30.17 in 10.0 mi North 9.2 mph - N/A   Clear
5:53 AM 48.9 °F - 39.9 °F 71% 30.18 in 10.0 mi North 8.1 mph - N/A   Clear
6:53 AM 48.0 °F - 41.0 °F 77% 30.20 in 10.0 mi North 6.9 mph - N/A   Clear
7:53 AM 46.0 °F 42.5 °F 39.9 °F 79% 30.21 in 10.0 mi NNW 6.9 mph - N/A   Clear
8:53 AM 51.1 °F - 41.0 °F 68% 30.24 in 10.0 mi NW 5.8 mph - N/A   Clear
9:53 AM 55.9 °F - 39.9 °F 55% 30.25 in 10.0 mi North 11.5 mph - N/A   Partly Cloudy
10:53 AM 57.9 °F - 39.0 °F 49% 30.25 in 10.0 mi North 15.0 mph - N/A   Scattered Clouds
11:53 AM 61.0 °F - 39.0 °F 44% 30.24 in 10.0 mi NE 12.7 mph 18.4 mph N/A   Scattered Clouds
12:53 PM 61.0 °F - 36.0 °F 39% 30.24 in 10.0 mi North 13.8 mph - N/A   Mostly Cloudy
1:53 PM 63.0 °F - 37.0 °F 38% 30.22 in 10.0 mi North 8.1 mph 20.7 mph N/A   Mostly Cloudy
2:53 PM 63.0 °F - 35.1 °F 35% 30.21 in 10.0 mi NNW 11.5 mph 21.9 mph N/A   Mostly Cloudy
3:53 PM 64.9 °F - 35.1 °F 33% 30.20 in 10.0 mi North 11.5 mph 17.3 mph N/A   Scattered Clouds
4:53 PM 63.0 °F - 37.0 °F 38% 30.22 in 10.0 mi NNW 16.1 mph - N/A   Scattered Clouds
5:53 PM 60.1 °F - 37.0 °F 42% 30.24 in 10.0 mi North 13.8 mph - N/A   Mostly Cloudy
6:53 PM 59.0 °F - 37.0 °F 44% 30.24 in 10.0 mi North 11.5 mph - N/A   Scattered Clouds
7:53 PM 57.0 °F - 37.9 °F 49% 30.25 in 10.0 mi North 6.9 mph - N/A   Scattered Clouds
8:53 PM 55.0 °F - 39.0 °F 55% 30.26 in 10.0 mi North 5.8 mph - N/A   Partly Cloudy
9:53 PM 52.0 °F - 39.9 °F 63% 30.27 in 10.0 mi NNW 5.8 mph - N/A   Clear
10:53 PM 50.0 °F - 39.9 °F 68% 30.28 in 10.0 mi NW 5.8 mph - N/A   Clear
11:53 PM 50.0 °F - 39.9 °F 68% 30.29 in 10.0 mi Calm Calm - N/A   Clear